143 
ASUS46 KSEW 261710
RWRWA 

WASHINGTON REGIONAL WEATHER ROUNDUP
NATIONAL WEATHER SERVICE SEATTLE WA
1000 AM PDT WED APR 26 2017

NOTE:"FAIR" INDICATES FEW OR NO CLOUDS BELOW 12,000 FEET WITH NO 
SIGNIFICANT WEATHER AND/OR OBSTRUCTIONS TO VISIBILITY.

WAZ507-509-555>559-261800-
SEATTLE, TACOMA, EVERETT, AND VICINITY
  
CITY           SKY/WX    TMP DP  RH WIND       PRES   REMARKS
EVERETT        CLOUDY    50  43  77 S15       29.79S                  
BOEING FIELD   PTSUNNY   51  46  83 SW10G18   29.81S                  
RENTON         PTSUNNY   52  45  77 S18G25    29.82R                  
SEATAC AIRPORT PTSUNNY   50  46  86 S17G26    29.81R                  
JBLM-MCCHORD   CLOUDY    50  50 100 SW10      29.84R                  
PUYALLUP         N/A     50  48  93 SW7       29.84S                  
BREMERTON      NOT AVBL                                               
JBLM-FT LEWIS  PTSUNNY   49  44  84 W6        29.88R                  
TACOMA NARROWS CLOUDY    48  44  86 SW10      29.83S                  
$$
 
WAZ001-503-506-510-514-515-261800-
NORTH INTERIOR
  
CITY           SKY/WX    TMP DP  RH WIND       PRES   REMARKS
BELLINGHAM     CLOUDY    53  45  74 S7        29.76R                  
FRIDAY HARBOR  SUNNY     54  42  64 SW12G21   29.79R                  
EASTSOUND      SUNNY     54  41  62 SW10      29.76R                  
PORT ANGELES   CLOUDY    49  44  83 NW14G21   29.80R                  
EDIZ HOOK      PTSUNNY   50  43  78 W23       29.80R                  
PORT TOWNSEND  CLOUDY    50  48  93 VRB3      29.80R                  
NAS WHIDBEY    PTSUNNY   52  43  71 W14       29.83R                  
ARLINGTON      CLOUDY    46  41  81 NW6       29.82R                  
BURLINGTON     CLOUDY    50  46  87 SE5       29.80R                  
$$
 
WAZ020-022-039-040-504-511-512-261800-
SOUTHWEST INTERIOR
  
CITY           SKY/WX    TMP DP  RH WIND       PRES   REMARKS
SHELTON        LGT RAIN  50  45  83 SW14G24   29.81R                  
OLYMPIA        CLOUDY    49  47  93 SW8       29.85R                  
CHEHALIS       PTSUNNY   50  46  87 SW8       29.86R                  
KELSO          CLOUDY    50  45  83 W6        29.91R                  
VANCOUVER      LGT RAIN  49  48  97 VRB3      29.90R                  
SCAPPOOSE, OR  CLOUDY    50  45  83 SW9       29.90R                  
PORTLAND, OR   LGT RAIN  49  46  90 S8        29.91R                  
$$
 
WAZ021-516-517-261800-
WASHINGTON COAST
  
CITY           SKY/WX    TMP DP  RH WIND       PRES   REMARKS
FORKS          CLOUDY    48  44  86 W9        29.84R                  
HOQUIAM        LGT RAIN  48  46  93 W14       29.87R FOG              
ASTORIA, OR    CLOUDY    50  45  83 W14       29.90R                  
$$
 
WAZ019-023-024-040-567>569-261800-
CASCADE MOUNTAINS AND COLUMBIA GORGE
  
CITY           SKY/WX    TMP DP  RH WIND       PRES   REMARKS
STAMPEDE PASS  FOG       35  35 100 VRB7      29.73R VSB 3/4          
TROUTDALE, OR  LGT RAIN  49  45  86 S8        29.91R                  
THE DALLES, OR PTSUNNY   53  41  63 NW14      29.84R                  
$$

WAZ026-027-041>044-520-521-261800-
EAST SLOPES
  
CITY           SKY/WX    TMP DP  RH WIND       PRES   REMARKS
OMAK           CLOUDY    52  40  63 S7        29.68S                  
WENATCHEE      CLOUDY    47  40  76 SW5       29.72F                  
ELLENSBURG     CLOUDY    47  37  68 NW10      29.74F                  
YAKIMA         LGT RAIN  49  42  77 CALM      29.77S                  
SUNNYSIDE ARPT LGT RAIN  49  42  77 SW13      29.77S                  
$$

WAZ028-034-035-261800-
COLUMBIA BASIN
  
CITY           SKY/WX    TMP DP  RH WIND       PRES   REMARKS
EPHRATA        CLOUDY    56  29  35 W15       29.70F                  
MOSES LAKE     CLOUDY    56  36  47 W13       29.72S                  
PASCO          CLOUDY    56  43  61 SW13      29.77F                  
HERMISTON, OR  LGT RAIN  50  47  89 SW13      29.79S                  
$$

WAZ036>038-261800-
NORTHEAST WASHINGTON
  
CITY           SKY/WX    TMP DP  RH WIND       PRES   REMARKS
SPOKANE GEIGER CLOUDY    48  40  73 SW13      29.70S                  
SPOKANE FELTS  CLOUDY    50  42  74 SW16      29.71S                  
FAIRCHILD AFB  MOSUNNY   48  42  80 SW15      29.69S                  
COEURDALENE,ID LGT RAIN  44  43  96 S7        29.71S                  
DEER PARK      CLOUDY    45  42  89 SW6       29.70S                  
$$

WAZ029>033-261800-
SOUTHEAST WASHINGTON
  
CITY           SKY/WX    TMP DP  RH WIND       PRES   REMARKS
PULLMAN        CLOUDY    48  39  71 W21G28    29.76R                  
LEWISTON, ID   CLOUDY    53  43  68 NW6       29.76R                  
WALLA WALLA    CLOUDY    51  47  86 S14       29.78S                  
PENDLETON, OR  LGT RAIN  48  45  89 SW14      29.80R                  
$$